This is the latest recevied weather packets stored in our database for station/object IZ3MEZ-13. If no packets are shown the sender has not sent any weather packets the latest 10 day(s).
| Time | Temp. | Humidity | Pressure | Rain* | Wind** | Luminosity | Snow |
|---|---|---|---|---|---|---|---|
| 1777671322 | 9.44° C | 64% | 1027.3 hPa | 0 mm | - | 0 W/m² | - |
| 1777670718 | 9.44° C | 63% | 1027.3 hPa | 0 mm | - | 0 W/m² | - |
| 1777670418 | 9.44° C | 62% | 1027.2 hPa | 0 mm | - | 0 W/m² | - |
| 1777669817 | 10° C | 61% | 1027.1 hPa | 0 mm | - | 0 W/m² | - |
| 1777669226 | 10° C | 59% | 1027.1 hPa | 0 mm | - | 0 W/m² | - |
| 1777668917 | 10° C | 59% | 1027 hPa | 0 mm | - | 0 W/m² | - |
| 1777668322 | 10° C | 58% | 1027.1 hPa | 0 mm | - | 0 W/m² | - |
| 1777668021 | 10.56° C | 58% | 1027.1 hPa | 0 mm | - | 0 W/m² | - |
| 1777667434 | 10.56° C | 57% | 1027 hPa | 0 mm | - | 0 W/m² | - |
| 1777666820 | 10.56° C | 57% | 1027 hPa | 0 mm | - | 0 W/m² | - |
| 1777666525 | 10.56° C | 56% | 1027 hPa | 0 mm | - | 0 W/m² | - |
| 1777665923 | 11.11° C | 55% | 1026.9 hPa | 0 mm | - | 0 W/m² | - |
| 1777665320 | 11.11° C | 55% | 1026.9 hPa | 0 mm | - | 0 W/m² | - |
| 1777664717 | 11.67° C | 53% | 1026.8 hPa | 0 mm | - | 0 W/m² | - |
| 1777663522 | 12.22° C | 49% | 1026.7 hPa | 0 mm | - | 0 W/m² | - |
| 1777662925 | 12.78° C | 48% | 1026.7 hPa | 0 mm | - | 0 W/m² | - |
| 1777662316 | 13.33° C | 48% | 1026.6 hPa | 0 mm | - | 0 W/m² | - |
| 1777661723 | 13.89° C | 46% | 1026.5 hPa | 0 mm | - | 0 W/m² | - |
| 1777661124 | 14.44° C | 43% | 1026.4 hPa | 0 mm | - | 0 W/m² | - |
| 1777660529 | 15° C | 43% | 1026.3 hPa | 0 mm | - | 0 W/m² | - |
| 1777659919 | 16.11° C | 40% | 1026.4 hPa | 0 mm | - | 0 W/m² | - |
| 1777659320 | 17.22° C | 38% | 1026.2 hPa | 0 mm | - | 2 W/m² | - |
| 1777658721 | 17.78° C | 36% | 1026.2 hPa | 0 mm | - | 6 W/m² | - |
| 1777658123 | 18.33° C | 34% | 1026 hPa | 0 mm | - | 10 W/m² | - |
| 1777657518 | 18.33° C | 34% | 1026 hPa | 0 mm | - | 14 W/m² | - |
* Rain latest hour (hover to see other rain measurements)
** Current wind speed in m/s (hover to see current wind gust speed)